QPF
0.00 0.00 0.00 0.00 0.00 0.00 0.00 0.00 0.00 0.00 0.00 0.00 0.00 0.00 0.00 0.00 0.00 0.00 0.00 0.00 0.00 0.00 0.00 0.00 0.00 0.00 0.00 0.00 0.00 0.00 0.00 0.00 0.00 0.00 0.00 0.00 0.00 0.00 0.00 0.00 0.05 0.08 0.03 0.02
0.00 0.00 0.00 0.00 0.00 0.00 0.00 0.00 0.00 0.00 0.00 0.00 0.00 0.00 0.00 0.00 0.00 0.00 0.00 0.00 0.00 0.00 0.00 0.00 0.00 0.00 0.00 0.00 0.00 0.00 0.00 0.00 0.00 0.00 0.00 0.00 0.00 0.00 0.00 0.01 0.03 0.12 0.09 0.02
0.00 0.00 0.00 0.00 0.00 0.00 0.00 0.00 0.00 0.00 0.00 0.00 0.00 0.00 0.00 0.00 0.00 0.00 0.00 0.00 0.00 0.00 0.00 0.00 0.00 0.00 0.00 0.00 0.00 0.00 0.00 0.00 0.00 0.00 0.00 0.00 0.00 0.00 0.00 0.06 0.11 0.13 0.09 0.04
0.00 0.00 0.00 0.00 0.00 0.00 0.00 0.00 0.00 0.00 0.00 0.00 0.00 0.00 0.00 0.00 0.00 0.00 0.00 0.00 0.00 0.00 0.00 0.00 0.00 0.00 0.00 0.00 0.00 0.00 0.00 0.00 0.00 0.00 0.00 0.00 0.01 0.00 0.01 0.05 0.09 0.08 0.04 0.02
0.00 0.00 0.00 0.00 0.00 0.00 0.00 0.00 0.00 0.00 0.00 0.00 0.00 0.00 0.00 0.00 0.00 0.00 0.00 0.00 0.00 0.00 0.00 0.00 0.00 0.00 0.00 0.00 0.00 0.00 0.00 0.00 0.00 0.00 0.00 0.00 0.00 0.00 0.01 0.03 0.05 0.05 0.04 0.02
0.00 0.00 0.00 0.00 0.00 0.00 0.00 0.00 0.00 0.00 0.00 0.00 0.00 0.00 0.00 0.00 0.00 0.00 0.00 0.00 0.00 0.00 0.00 0.00 0.00 0.00 0.00 0.00 0.00 0.00 0.00 0.00 0.00 0.00 0.01 0.01 0.00 0.00 0.00 0.00 0.02 0.04 0.04 0.03
0.00 0.00 0.00 0.00 0.00 0.00 0.00 0.00 0.00 0.00 0.00 0.00 0.00 0.00 0.00 0.00 0.00 0.00 0.00 0.00 0.00 0.00 0.00 0.00 0.00 0.00 0.00 0.00 0.00 0.00 0.00 0.00 0.00 0.02 0.01 0.00 0.01 0.02 0.00 0.01 0.03 0.04 0.03 0.02
0.00 0.00 0.00 0.00 0.00 0.00 0.00 0.00 0.00 0.00 0.00 0.00 0.00 0.00 0.00 0.00 0.00 0.00 0.00 0.00 0.00 0.00 0.00 0.00 0.00 0.00 0.00 0.00 0.00 0.00 0.00 0.00 0.00 0.02 0.04 0.06 0.04 0.02 0.01 0.01 0.04 0.05 0.04 0.02
0.00 0.00 0.00 0.00 0.00 0.00 0.00 0.00 0.00 0.00 0.00 0.00 0.00 0.00 0.00 0.00 0.00 0.00 0.00 0.00 0.00 0.00 0.00 0.00 0.00 0.00 0.00 0.00 0.00 0.00 0.00 0.02 0.01 0.04 0.05 0.03 0.06 0.06 0.02 0.03 0.04 0.05 0.05 0.03
0.00 0.00 0.00 0.00 0.00 0.00 0.00 0.00 0.00 0.00 0.00 0.00 0.00 0.00 0.00 0.00 0.00 0.00 0.00 0.00 0.00 0.00 0.00 0.00 0.00 0.00 0.00 0.00 0.00 0.00 0.00 0.02 0.03 0.03 0.01 0.01 0.02 0.03 0.02 0.03 0.05 0.06 0.04 0.02
0.00 0.00 0.00 0.00 0.00 0.00 0.00 0.00 0.00 0.00 0.00 0.00 0.00 0.00 0.00 0.00 0.00 0.00 0.00 0.00 0.00 0.00 0.00 0.00 0.00 0.00 0.00 0.00 0.00 0.00 0.00 0.00 0.00 0.00 0.00 0.01 0.03 0.03 0.04 0.05 0.06 0.04 0.02 0.01
0.00 0.00 0.00 0.00 0.00 0.00 0.00 0.00 0.00 0.00 0.00 0.00 0.00 0.00 0.00 0.00 0.00 0.00 0.00 0.00 0.00 0.00 0.00 0.00 0.00 0.00 0.00 0.00 0.00 0.00 0.00 0.00 0.00 0.00 0.00 0.00 0.01 0.05 0.04 0.05 0.05 0.03 0.01 0.00
0.00 0.00 0.00 0.00 0.00 0.00 0.00 0.00 0.00 0.00 0.00 0.00 0.00 0.00 0.00 0.00 0.00 0.00 0.00 0.00 0.00 0.00 0.00 0.00 0.00 0.00 0.00 0.00 0.00 0.00 0.00 0.00 0.00 0.00 0.00 0.00 0.01 0.04 0.05 0.04 0.02 0.01 0.00 0.00
0.00 0.00 0.00 0.00 0.00 0.00 0.00 0.00 0.00 0.00 0.00 0.00 0.00 0.00 0.00 0.00 0.00 0.00 0.00 0.00 0.00 0.00 0.00 0.00 0.00 0.00 0.00 0.00 0.00 0.00 0.00 0.00 0.00 0.00 0.00 0.00 0.01 0.01 0.02 0.01 0.01 0.00 0.00 0.00
0.00 0.00 0.00 0.00 0.00 0.00 0.00 0.00 0.00 0.00 0.00 0.00 0.00 0.00 0.00 0.00 0.00 0.00 0.00 0.00 0.00 0.00 0.00 0.00 0.00 0.00 0.00 0.00 0.01 0.01 0.01 0.00 0.01 0.02 0.02 0.01 0.00 0.00 0.00 0.00 0.00 0.00 0.00 0.00
0.00 0.00 0.00 0.00 0.00 0.00 0.00 0.00 0.00 0.00 0.00 0.00 0.00 0.00 0.00 0.00 0.00 0.00 0.00 0.00 0.00 0.00 0.00 0.00 0.00 0.00 0.00 0.00 0.01 0.01 0.01 0.01 0.01 0.00 0.00 0.00 0.00 0.00 0.00 0.00 0.00 0.00 0.00 0.00
0.00 0.00 0.00 0.00 0.00 0.00 0.00 0.00 0.00 0.00 0.00 0.00 0.00 0.00 0.00 0.00 0.00 0.00 0.00 0.00 0.00 0.00 0.00 0.00 0.00 0.00 0.00 0.00 0.00 0.00 0.00 0.00 0.00 0.00 0.00 0.00 0.00 0.00 0.00 0.00 0.00 0.00 0.00 0.00
0.00 0.00 0.00 0.00 0.00 0.00 0.00 0.00 0.00 0.00 0.00 0.00 0.00 0.00 0.00 0.00 0.00 0.00 0.00 0.00 0.00 0.00 0.00 0.00 0.00 0.00 0.00 0.00 0.00 0.00 0.00 0.00 0.00 0.00 0.00 0.00 0.00 0.00 0.00 0.00 0.00 0.00 0.00 0.00
0.00 0.00 0.00 0.00 0.00 0.00 0.00 0.00 0.00 0.00 0.00 0.00 0.00 0.00 0.00 0.00 0.00 0.00 0.00 0.00 0.00 0.00 0.00 0.00 0.00 0.00 0.00 0.00 0.00 0.00 0.00 0.00 0.00 0.00 0.00 0.00 0.00 0.00 0.00 0.00 0.00 0.00 0.00 0.00
0.00 0.00 0.00 0.00 0.00 0.00 0.00 0.00 0.00 0.00 0.00 0.00 0.00 0.00 0.00 0.00 0.00 0.00 0.00 0.00 0.00 0.00 0.00 0.00 0.00 0.00 0.00 0.00 0.00 0.00 0.00 0.00 0.00 0.00 0.00 0.00 0.00 0.00 0.00 0.00 0.00 0.00 0.00 0.00
0.00 0.00 0.00 0.00 0.00 0.00 0.00 0.00 0.00 0.00 0.00 0.00 0.00 0.00 0.00 0.00 0.00 0.00 0.00 0.00 0.00 0.00 0.00 0.00 0.00 0.00 0.00 0.00 0.00 0.00 0.00 0.00 0.00 0.00 0.00 0.00 0.00 0.00 0.00 0.00 0.00 0.00 0.00 0.00
0.00 0.00 0.00 0.00 0.00 0.00 0.00 0.00 0.00 0.00 0.00 0.00 0.00 0.00 0.00 0.00 0.00 0.00 0.00 0.00 0.00 0.00 0.00 0.00 0.00 0.00 0.00 0.00 0.00 0.00 0.00 0.00 0.00 0.00 0.00 0.00 0.00 0.00 0.00 0.00 0.00 0.00 0.00 0.00
0.00 0.00 0.00 0.00 0.00 0.00 0.00 0.00 0.00 0.00 0.00 0.00 0.00 0.00 0.00 0.00 0.00 0.00 0.00 0.00 0.00 0.00 0.00 0.00 0.00 0.00 0.00 0.00 0.00 0.00 0.00 0.00 0.00 0.00 0.00 0.00 0.00 0.00 0.00 0.00 0.00 0.00 0.00 0.00
0.00 0.00 0.00 0.00 0.00 0.00 0.00 0.00 0.00 0.00 0.00 0.00 0.00 0.00 0.00 0.00 0.00 0.00 0.00 0.00 0.00 0.00 0.00 0.00 0.00 0.00 0.00 0.00 0.00 0.00 0.00 0.00 0.00 0.00 0.00 0.00 0.00 0.00 0.00 0.00 0.00 0.00 0.00 0.00
0.00 0.00 0.00 0.00 0.00 0.00 0.00 0.00 0.00 0.00 0.00 0.00 0.00 0.00 0.00 0.00 0.00 0.00 0.00 0.00 0.00 0.00 0.00 0.00 0.00 0.00 0.00 0.00 0.00 0.00 0.00 0.00 0.00 0.00 0.00 0.00 0.00 0.00 0.00 0.00 0.00 0.00 0.00 0.00
0.00 0.00 0.00 0.00 0.00 0.01 0.00 0.00 0.00 0.00 0.00 0.00 0.00 0.00 0.00 0.00 0.00 0.00 0.00 0.00 0.00 0.00 0.00 0.00 0.00 0.00 0.00 0.00 0.00 0.00 0.00 0.00 0.00 0.00 0.00 0.00 0.00 0.00 0.00 0.00 0.00 0.00 0.00 0.00
MSLP
1009.87 1009.30 1008.54 1008.12 1008.61 1008.47 1007.93 1007.60 1006.97 1007.14 1007.77 1007.74 1007.20 1006.86 1006.73 1008.16 1009.18 1009.57 1010.31 1011.56 1012.39 1012.62 1013.55 1014.32 1014.93 1015.55 1016.12 1016.61 1017.24 1017.62 1018.06 1018.52 1018.92 1019.22 1019.36 1019.56 1019.94 1020.27 1020.78 1020.93 1021.45 1022.01 1022.05 1022.61
1009.61 1008.61 1008.35 1008.87 1009.10 1008.95 1008.30 1007.64 1007.18 1007.51 1007.88 1007.92 1006.77 1006.22 1006.58 1007.20 1008.02 1008.86 1009.30 1010.05 1010.99 1011.86 1012.77 1013.67 1014.19 1014.91 1015.49 1015.94 1016.45 1016.96 1017.31 1017.85 1018.26 1018.40 1018.70 1019.01 1019.35 1019.73 1020.23 1020.84 1021.65 1021.88 1021.96 1022.17
1008.26 1008.20 1008.87 1008.99 1008.83 1008.77 1008.25 1007.62 1007.34 1007.20 1007.39 1007.33 1006.99 1005.87 1006.22 1006.88 1007.38 1007.94 1008.61 1008.94 1009.70 1010.44 1011.42 1012.40 1013.17 1013.94 1014.77 1015.19 1015.70 1016.12 1016.50 1016.90 1017.39 1017.86 1018.23 1018.69 1019.15 1019.60 1020.22 1020.81 1021.25 1021.71 1021.94 1022.04
1008.25 1008.07 1008.69 1008.65 1008.37 1008.29 1007.72 1007.90 1008.04 1007.68 1007.38 1006.44 1006.86 1005.65 1005.56 1006.00 1006.53 1006.98 1007.47 1008.04 1008.45 1009.21 1010.25 1011.16 1012.12 1012.83 1013.50 1014.16 1014.83 1015.35 1015.73 1016.24 1016.72 1017.33 1017.54 1017.93 1018.24 1018.55 1019.09 1019.99 1020.90 1021.27 1021.77 1021.81
1007.81 1008.05 1008.29 1008.15 1007.88 1008.23 1007.81 1008.36 1008.27 1007.89 1007.41 1007.16 1006.61 1006.21 1004.70 1005.77 1005.42 1005.63 1006.22 1006.71 1007.45 1008.03 1008.91 1009.56 1010.39 1011.33 1012.40 1013.33 1013.92 1014.54 1015.02 1015.54 1016.05 1016.65 1017.12 1017.50 1017.81 1017.86 1018.28 1019.63 1020.24 1020.74 1021.05 1021.21
1007.29 1008.18 1008.10 1007.59 1007.96 1008.13 1008.31 1008.34 1008.45 1008.35 1007.70 1007.11 1006.37 1006.11 1004.28 1004.25 1004.49 1004.77 1005.09 1005.65 1006.39 1006.97 1007.72 1008.29 1009.18 1010.30 1011.07 1012.11 1012.88 1013.57 1014.12 1014.67 1015.36 1016.06 1016.65 1016.86 1017.11 1017.42 1017.82 1018.83 1019.43 1019.96 1020.36 1020.71
1007.25 1007.42 1007.67 1008.01 1007.69 1008.11 1008.07 1007.90 1007.57 1007.69 1007.47 1006.96 1006.97 1006.26 1004.55 1004.27 1004.52 1004.71 1004.75 1004.89 1005.26 1006.04 1006.76 1007.51 1008.24 1009.04 1009.90 1010.71 1011.81 1012.79 1013.41 1013.74 1014.52 1015.20 1015.83 1016.25 1016.69 1017.15 1017.45 1017.97 1018.51 1019.09 1019.64 1020.19
1006.21 1006.50 1007.04 1007.25 1007.11 1006.85 1007.22 1007.41 1007.24 1007.24 1007.31 1006.88 1007.39 1005.67 1004.09 1004.63 1004.63 1004.75 1004.84 1005.08 1005.22 1005.20 1005.72 1006.29 1007.15 1007.98 1008.93 1009.87 1011.07 1011.97 1012.45 1012.92 1013.61 1014.35 1014.87 1015.63 1016.39 1016.87 1017.28 1017.77 1018.35 1018.71 1019.36 1019.86
1005.50 1005.73 1006.55 1006.88 1006.94 1007.02 1007.17 1007.30 1007.61 1007.88 1008.61 1007.80 1006.34 1005.43 1004.59 1004.57 1004.49 1004.55 1004.59 1004.77 1004.81 1005.05 1005.27 1005.64 1006.19 1007.15 1008.10 1009.06 1010.24 1011.13 1011.74 1012.28 1012.82 1013.91 1014.62 1015.24 1015.99 1016.63 1016.99 1017.42 1018.12 1018.84 1019.49 1019.91
1005.44 1005.64 1006.53 1006.97 1007.13 1007.32 1006.96 1007.04 1007.73 1007.69 1007.52 1006.90 1005.85 1005.26 1003.92 1004.33 1004.38 1004.49 1004.35 1004.42 1004.65 1005.05 1005.36 1005.74 1006.17 1006.81 1007.69 1008.52 1009.58 1010.70 1011.40 1011.79 1012.37 1013.31 1014.13 1014.94 1015.58 1016.05 1016.52 1017.12 1017.65 1018.61 1019.27 1020.08
1005.24 1005.46 1006.71 1006.97 1006.46 1005.76 1006.96 1006.86 1007.18 1007.00 1007.30 1006.67 1005.93 1004.80 1004.38 1004.25 1004.33 1004.53 1004.69 1004.76 1004.89 1005.18 1005.56 1006.03 1006.48 1007.14 1007.85 1008.61 1009.38 1010.25 1010.89 1011.29 1011.87 1012.57 1013.54 1014.44 1015.00 1015.59 1016.32 1016.96 1017.50 1018.11 1019.05 1019.79
1005.18 1005.47 1005.52 1005.79 1006.17 1006.06 1005.42 1005.73 1006.27 1006.51 1007.01 1007.02 1006.47 1005.14 1004.37 1004.31 1004.50 1004.73 1004.84 1005.05 1005.23 1005.48 1005.84 1006.36 1006.86 1007.38 1007.86 1008.55 1009.23 1009.89 1010.49 1011.00 1011.45 1012.24 1013.11 1014.02 1015.12 1015.95 1016.61 1017.22 1017.84 1018.43 1019.16 1019.94
1005.15 1005.31 1005.17 1005.50 1006.27 1006.17 1005.57 1005.58 1005.81 1006.17 1006.61 1006.04 1005.78 1004.79 1004.37 1004.50 1004.58 1004.65 1004.84 1005.10 1005.58 1005.96 1006.19 1006.51 1006.99 1007.48 1008.06 1008.65 1009.21 1009.86 1010.67 1011.17 1011.66 1012.34 1013.39 1014.84 1015.79 1016.46 1017.02 1017.64 1018.25 1018.81 1019.41 1019.98
1004.50 1004.47 1004.53 1004.31 1004.19 1004.45 1005.04 1005.10 1005.30 1005.58 1005.54 1005.26 1004.78 1004.12 1003.69 1003.69 1003.80 1003.94 1004.77 1005.44 1005.86 1006.21 1006.51 1006.69 1007.16 1007.69 1008.45 1009.10 1009.68 1010.34 1011.52 1012.39 1013.19 1013.77 1014.55 1015.43 1016.21 1016.79 1017.42 1018.08 1018.63 1019.09 1019.75 1020.32
1004.62 1004.18 1004.42 1004.23 1004.08 1003.97 1004.11 1004.01 1004.44 1004.60 1004.64 1004.19 1004.01 1003.35 1003.38 1003.17 1003.35 1003.93 1004.89 1005.80 1006.19 1006.62 1007.06 1007.41 1007.58 1008.08 1008.83 1009.69 1010.50 1011.27 1012.34 1013.22 1014.06 1014.70 1015.37 1016.13 1016.85 1017.34 1017.91 1018.35 1018.83 1019.57 1020.27 1020.86
1004.85 1004.22 1004.46 1004.35 1004.31 1004.35 1003.88 1003.70 1003.64 1003.74 1003.64 1003.58 1003.45 1002.95 1003.20 1003.34 1004.08 1004.69 1005.34 1005.93 1006.66 1007.40 1007.97 1008.45 1008.66 1009.05 1009.85 1010.62 1011.40 1012.29 1012.98 1013.73 1014.62 1015.41 1016.25 1016.99 1017.40 1018.07 1018.55 1019.03 1019.58 1020.36 1020.84 1021.19
1005.14 1004.77 1004.80 1004.46 1004.79 1004.57 1004.15 1003.42 1003.16 1003.09 1003.12 1002.96 1002.53 1002.58 1002.90 1003.44 1004.10 1004.81 1005.81 1006.47 1007.52 1008.46 1009.04 1009.60 1010.01 1010.42 1010.95 1011.61 1012.29 1012.99 1013.73 1014.47 1015.15 1016.07 1016.88 1017.45 1018.06 1018.74 1019.19 1019.77 1020.17 1020.74 1021.17 1021.85
1005.26 1005.22 1005.12 1005.27 1005.75 1004.49 1002.82 1002.77 1002.53 1002.39 1002.27 1002.31 1002.28 1002.42 1002.81 1003.47 1004.48 1006.09 1006.84 1007.56 1008.62 1009.51 1010.11 1010.70 1011.12 1011.59 1012.07 1012.63 1013.29 1013.89 1014.51 1015.17 1015.92 1016.74 1017.53 1018.27 1018.75 1019.13 1019.67 1020.25 1020.84 1021.22 1021.61 1021.90
1005.39 1005.40 1005.36 1005.40 1004.82 1003.50 1003.29 1003.02 1002.53 1002.13 1001.64 1001.60 1001.73 1002.02 1002.65 1004.78 1005.95 1007.22 1008.27 1008.61 1009.63 1010.52 1011.08 1011.67 1012.13 1012.50 1012.95 1013.44 1013.98 1014.42 1015.04 1015.79 1016.61 1017.41 1018.10 1018.66 1019.14 1019.73 1020.19 1020.34 1020.67 1021.10 1021.16 1021.25
1005.75 1005.78 1005.45 1005.63 1004.19 1002.80 1001.89 1001.56 1001.93 1002.01 1000.48 1001.08 1001.54 1002.06 1003.20 1005.17 1005.53 1005.87 1008.76 1009.88 1010.75 1011.42 1011.94 1012.42 1012.99 1013.36 1013.69 1014.18 1014.52 1014.93 1015.60 1016.30 1017.17 1018.04 1018.70 1019.17 1019.63 1020.21 1020.41 1020.55 1020.69 1021.08 1021.24 1021.49
1005.57 1005.67 1005.18 1004.68 1003.75 1002.03 1001.40 1001.47 1001.96 1001.60 1000.12 1000.94 1001.42 1002.13 1003.67 1004.75 1005.01 1006.41 1008.89 1010.39 1011.28 1011.86 1012.46 1012.99 1013.32 1013.71 1014.26 1014.74 1015.17 1015.64 1016.45 1017.35 1018.14 1018.76 1019.44 1020.04 1020.41 1020.57 1020.72 1020.96 1021.20 1021.35 1021.41 1021.60
1004.13 1004.29 1004.42 1004.21 1003.41 1001.83 1001.56 1002.02 1001.03 999.85 1000.47 1000.84 1001.56 1002.22 1003.48 1005.13 1006.74 1008.12 1009.38 1010.58 1011.61 1012.27 1013.00 1013.43 1013.91 1014.55 1015.12 1015.51 1015.91 1016.47 1017.23 1018.07 1018.76 1019.32 1019.78 1020.25 1020.72 1021.02 1021.09 1021.21 1021.45 1021.52 1021.65 1021.87
1003.22 1003.16 1003.10 1002.88 1001.18 1000.54 1000.57 999.69 1000.03 1000.20 1000.20 1001.06 1001.52 1002.50 1003.71 1005.74 1007.26 1008.70 1009.88 1010.99 1011.85 1012.49 1013.12 1013.82 1014.48 1015.16 1015.82 1016.27 1016.74 1017.26 1018.21 1018.82 1019.38 1019.83 1020.32 1020.87 1021.26 1021.43 1021.57 1021.56 1021.80 1021.87 1022.12 1022.33
1002.59 1002.93 1002.53 1002.67 1000.77 1000.66 1000.25 1000.02 1000.33 1000.62 1000.86 1001.29 1001.77 1002.76 1004.24 1005.48 1007.30 1008.98 1010.32 1011.23 1012.00 1012.81 1013.49 1014.26 1015.11 1015.92 1016.72 1017.42 1017.93 1018.42 1018.97 1019.39 1019.81 1020.34 1020.84 1021.22 1021.61 1021.66 1021.98 1022.13 1022.47 1022.56 1022.94 1023.10
1001.15 1001.91 1001.52 1001.23 1000.76 1000.99 1000.60 1000.14 1000.10 1001.00 1001.65 1002.01 1002.40 1003.31 1004.23 1005.62 1007.32 1008.74 1010.21 1011.37 1012.19 1013.12 1014.13 1014.81 1015.63 1016.62 1017.61 1018.43 1019.06 1019.49 1019.68 1020.05 1020.49 1020.95 1021.33 1021.66 1022.00 1022.17 1022.31 1022.75 1023.38 1023.73 1023.97 1024.43
1000.73 1000.30 1000.64 999.62 999.45 1000.35 999.87 999.79 1000.32 1001.11 1001.66 1002.24 1002.73 1003.81 1004.89 1005.86 1007.01 1008.74 1010.23 1011.45 1012.55 1013.53 1014.30 1015.30 1016.37 1017.47 1018.56 1019.31 1019.88 1020.24 1020.36 1020.54 1020.85 1021.42 1022.09 1022.60 1022.62 1022.78 1022.84 1023.02 1023.36 1024.53 1024.75 1024.83
Thickness
5657 5649 5646 5656 5652 5651 5654 5652 5656 5661 5661 5656 5658 5663 5673 5664 5653 5652 5649 5639 5631 5637 5636 5632 5629 5627 5623 5620 5615 5612 5608 5606 5604 5603 5603 5604 5601 5601 5597 5595 5592 5589 5588 5585
5647 5646 5659 5654 5647 5642 5647 5649 5653 5657 5657 5651 5664 5667 5671 5670 5664 5658 5659 5654 5648 5643 5638 5634 5635 5631 5628 5625 5622 5619 5617 5613 5611 5612 5610 5608 5605 5603 5600 5596 5591 5588 5587 5587
5649 5656 5652 5645 5644 5637 5644 5647 5651 5653 5659 5662 5658 5666 5668 5669 5670 5669 5666 5667 5662 5655 5648 5643 5641 5637 5633 5630 5627 5625 5624 5622 5620 5616 5613 5609 5605 5602 5596 5593 5592 5589 5587 5585
5650 5661 5645 5643 5641 5646 5639 5653 5647 5649 5648 5647 5661 5644 5667 5672 5668 5669 5670 5669 5669 5665 5659 5654 5648 5644 5641 5639 5636 5633 5631 5627 5624 5619 5617 5612 5609 5606 5605 5599 5592 5588 5584 5584
5644 5645 5640 5639 5645 5646 5643 5646 5643 5648 5649 5649 5654 5646 5677 5667 5670 5674 5676 5677 5674 5673 5668 5664 5660 5655 5650 5644 5641 5638 5636 5632 5628 5623 5619 5614 5610 5611 5609 5598 5594 5589 5586 5582
5653 5651 5648 5651 5650 5648 5647 5643 5641 5643 5647 5631 5653 5650 5668 5675 5677 5680 5684 5684 5680 5678 5676 5675 5671 5664 5659 5653 5647 5642 5638 5634 5630 5624 5619 5616 5613 5610 5608 5600 5595 5591 5587 5581
5642 5643 5649 5646 5641 5643 5642 5638 5625 5620 5623 5625 5644 5642 5666 5681 5681 5680 5682 5687 5689 5685 5681 5675 5671 5668 5664 5659 5651 5644 5640 5637 5632 5626 5621 5617 5614 5609 5606 5603 5598 5592 5587 5580
5631 5624 5641 5650 5646 5644 5642 5641 5628 5610 5618 5635 5635 5638 5669 5678 5682 5682 5683 5682 5683 5688 5687 5683 5678 5673 5667 5662 5654 5648 5644 5640 5635 5629 5625 5619 5612 5607 5604 5600 5595 5590 5582 5576
5634 5634 5647 5646 5649 5649 5637 5630 5647 5625 5614 5620 5645 5657 5675 5677 5675 5678 5680 5680 5682 5684 5686 5685 5683 5678 5672 5664 5656 5651 5647 5643 5639 5630 5623 5618 5611 5604 5601 5597 5589 5581 5574 5568
5641 5627 5637 5636 5642 5641 5642 5649 5623 5629 5609 5612 5639 5642 5659 5661 5665 5672 5677 5680 5682 5682 5681 5681 5679 5677 5671 5666 5659 5651 5647 5643 5639 5632 5625 5618 5611 5606 5600 5592 5586 5575 5566 5558
5645 5638 5621 5628 5631 5640 5629 5629 5631 5640 5629 5621 5618 5640 5668 5664 5667 5666 5669 5674 5677 5677 5676 5674 5673 5671 5666 5662 5657 5651 5647 5644 5638 5633 5625 5617 5610 5604 5595 5587 5580 5572 5561 5553
5642 5634 5621 5628 5636 5641 5649 5640 5638 5621 5617 5622 5619 5632 5671 5670 5664 5661 5664 5667 5672 5672 5671 5669 5667 5665 5662 5658 5654 5649 5646 5641 5638 5631 5624 5614 5603 5594 5585 5577 5568 5560 5551 5542
5635 5624 5613 5616 5621 5628 5632 5640 5641 5637 5626 5625 5614 5630 5664 5660 5658 5660 5660 5663 5663 5662 5664 5664 5661 5659 5656 5652 5649 5645 5639 5635 5630 5624 5613 5599 5589 5580 5573 5564 5556 5548 5539 5531
5636 5633 5625 5618 5632 5641 5624 5633 5637 5631 5618 5626 5630 5641 5656 5659 5660 5664 5658 5655 5656 5655 5657 5659 5655 5651 5646 5642 5638 5634 5624 5616 5609 5603 5595 5585 5577 5569 5561 5552 5544 5536 5526 5517
5629 5621 5629 5636 5640 5640 5637 5639 5635 5629 5634 5630 5638 5645 5653 5662 5664 5663 5656 5648 5648 5647 5646 5646 5646 5643 5637 5630 5623 5619 5610 5602 5594 5586 5579 5571 5563 5556 5548 5541 5533 5522 5512 5501
5620 5620 5625 5621 5632 5629 5628 5638 5639 5638 5641 5640 5640 5641 5657 5661 5656 5649 5646 5644 5640 5635 5632 5630 5631 5627 5620 5614 5608 5601 5595 5589 5581 5572 5562 5554 5549 5540 5532 5524 5514 5503 5494 5485
5606 5612 5611 5611 5619 5617 5596 5623 5634 5638 5640 5640 5632 5646 5654 5649 5647 5646 5639 5637 5629 5621 5618 5614 5611 5609 5605 5599 5593 5586 5580 5573 5566 5556 5547 5540 5532 5522 5515 5505 5497 5487 5479 5467
5600 5604 5609 5602 5581 5578 5637 5643 5645 5640 5644 5646 5645 5648 5649 5648 5643 5628 5626 5621 5612 5607 5603 5599 5597 5592 5588 5584 5578 5572 5566 5559 5551 5541 5532 5522 5515 5508 5500 5490 5480 5471 5462 5453
5601 5601 5594 5587 5598 5623 5620 5626 5631 5629 5636 5651 5646 5648 5647 5626 5619 5611 5606 5608 5599 5592 5587 5584 5581 5578 5574 5570 5564 5560 5554 5545 5536 5526 5518 5509 5502 5492 5484 5478 5469 5459 5452 5445
5587 5592 5597 5579 5593 5590 5634 5647 5645 5638 5630 5651 5647 5642 5633 5615 5614 5630 5595 5587 5580 5577 5573 5570 5565 5563 5560 5555 5552 5548 5541 5533 5522 5512 5502 5495 5486 5476 5469 5463 5456 5446 5437 5428
5572 5576 5581 5592 5591 5618 5640 5640 5635 5611 5639 5644 5645 5640 5624 5613 5624 5613 5588 5576 5571 5566 5562 5558 5556 5553 5547 5543 5538 5533 5524 5512 5503 5495 5485 5475 5468 5461 5454 5445 5436 5429 5421 5412
5583 5584 5578 5589 5580 5592 5632 5621 5623 5648 5643 5643 5636 5634 5623 5612 5597 5588 5578 5568 5560 5555 5549 5547 5542 5536 5532 5528 5524 5517 5507 5496 5487 5478 5470 5461 5452 5443 5436 5429 5420 5413 5405 5396
5580 5593 5599 5600 5616 5637 5633 5646 5644 5643 5643 5632 5632 5627 5619 5596 5586 5576 5567 5558 5552 5548 5543 5536 5530 5523 5518 5513 5507 5499 5487 5479 5470 5461 5452 5443 5434 5426 5418 5411 5402 5396 5386 5379
5584 5585 5587 5590 5623 5622 5628 5638 5633 5630 5629 5627 5627 5620 5606 5595 5581 5567 5556 5549 5544 5539 5533 5525 5516 5508 5500 5493 5486 5478 5469 5462 5454 5444 5435 5426 5416 5410 5401 5393 5383 5375 5365 5358
5595 5584 5591 5597 5612 5614 5618 5627 5630 5618 5614 5614 5615 5608 5600 5588 5574 5563 5550 5540 5535 5527 5517 5511 5503 5492 5482 5472 5464 5457 5452 5444 5435 5426 5417 5408 5399 5391 5383 5372 5360 5351 5343 5332
5588 5594 5587 5603 5625 5612 5627 5629 5622 5612 5608 5606 5604 5595 5587 5580 5571 5556 5543 5533 5523 5513 5507 5497 5486 5474 5462 5452 5444 5439 5434 5427 5419 5408 5396 5383 5377 5369 5362 5354 5348 5329 5317 5310